This is the latest recevied weather packets stored in our database for station/object N3LF. If no packets are shown the sender has not sent any weather packets the latest 10 day(s).
| Time | Temp. | Humidity | Pressure | Rain* | Wind** | Luminosity | Snow |
|---|---|---|---|---|---|---|---|
| 1777591167 | 17.78° C | 43% | 1017.2 hPa | 0 mm | - | 60 W/m² | - |
| 1777590861 | 17.22° C | 41% | 1017.2 hPa | 0 mm | - | 117 W/m² | - |
| 1777590558 | 17.22° C | 40% | 1017.1 hPa | 0 mm | - | 78 W/m² | - |
| 1777590254 | 17.22° C | 41% | 1017.4 hPa | 0 mm | - | 131 W/m² | - |
| 1777589952 | 17.22° C | 43% | 1017.4 hPa | 0 mm | - | 100 W/m² | - |
| 1777589648 | 17.78° C | 41% | 1017.6 hPa | 0 mm | - | 116 W/m² | - |
| 1777589345 | 17.78° C | 42% | 1017.4 hPa | 0 mm | - | 160 W/m² | - |
| 1777589042 | 17.78° C | 39% | 1017.4 hPa | 0 mm | - | 144 W/m² | - |
| 1777588738 | 17.78° C | 40% | 1017.5 hPa | 0 mm | - | 178 W/m² | - |
| 1777588434 | 17.78° C | 42% | 1017.3 hPa | 0 mm | - | 194 W/m² | - |
| 1777588129 | 17.78° C | 41% | 1017.5 hPa | 0 mm | - | 118 W/m² | - |
| 1777587826 | 18.33° C | 40% | 1017.2 hPa | 0 mm | - | 180 W/m² | - |
| 1777587525 | 18.33° C | 39% | 1017.2 hPa | 0 mm | - | 268 W/m² | - |
| 1777587221 | 18.89° C | 40% | 1017.4 hPa | 0 mm | - | 220 W/m² | - |
| 1777586917 | 18.33° C | 41% | 1017.3 hPa | 0 mm | - | 259 W/m² | - |
| 1777586613 | 18.33° C | 38% | 1017.3 hPa | 0 mm | - | 220 W/m² | - |
| 1777586309 | 18.33° C | 40% | 1017.6 hPa | 0 mm | - | 302 W/m² | - |
| 1777586007 | 17.78° C | 38% | 1017.5 hPa | 0 mm | - | 277 W/m² | - |
| 1777585702 | 18.89° C | 37% | 1017.5 hPa | 0 mm | - | 249 W/m² | - |
| 1777585402 | 18.89° C | 39% | 1017.5 hPa | 0 mm | - | 237 W/m² | - |
| 1777585102 | 18.33° C | 40% | 1017.4 hPa | 0 mm | - | 340 W/m² | - |
| 1777584798 | 18.33° C | 37% | 1017.6 hPa | 0 mm | - | 358 W/m² | - |
| 1777584497 | 17.78° C | 41% | 1017.7 hPa | 0 mm | - | 387 W/m² | - |
| 1777584193 | 17.78° C | 40% | 1017.6 hPa | 0 mm | - | 240 W/m² | - |
| 1777583892 | 18.33° C | 41% | 1017.8 hPa | 0 mm | - | 312 W/m² | - |
* Rain latest hour (hover to see other rain measurements)
** Current wind speed in m/s (hover to see current wind gust speed)